Location: Burland Observatory
(39.4088°N, 105.4217°W)
Time: 12:39:14
(UTC-07:00)

Vanguard 3 - Pass Details

Date: 10 December 2019
Orbit: 507 x 3263 km, 33.4° (Epoch: 25 January)

Event Time Altitude Azimuth Distance (km) Brightness Sun altitude
Rises 07:30:02 0° 230° (SW) 3,588 10.3 2.4°
Reaches altitude 10° 07:32:16 10° 223° (SW) 2,899 9.9 2.7°
Maximum altitude 07:39:08 44° 153° (SSE) 2,011 9.9 3.8°
Drops below altitude 10° 07:51:01 10° 87° (E) 4,945 12.1 5.7°
Sets 07:56:04 0° 83° (E) 6,377 12.5 6.5°
